User: anonymous   Login
Location: Santa Barbara
(34.4500°N, 119.7700°W)
Time: 12:47:28
(UTC-07:00)
Language:

Cosmos 1626 Rocket - Orbit

View from above orbital plane
View from above orbital plane
View from above satellite
View from above satellite

Ground track
Ground track

The orbit data is extracted from the following two-line orbital elements,

1 15495U 85009B   15115.37280861  .00000611  00000-0  71096-4 0  9999
2 15495 082.5270 201.5339 0021105 039.3621 320.9123 14.83538004633745
Epoch (UTC): 25 April 2015 08:56:50
Eccentricity: 0.0021105
inclination: 82.5270°
perigee height: 603 km
apogee height: 633 km
right ascension of ascending node: 201.5339°
argument of perigee: 39.3621°
revolutions per day: 14.83538004
mean anomaly at epoch: 320.9123°
orbit number at epoch: 63374

The dashed part of the orbit path shows where the satellite is in the earth's shadow,  

DLR